Location: ??????
(56.0120°N, 39.1740°E)
Time: 18:49:06
(UTC+00:00)

Resurs 1-4 Rocket - Pass Details

Date: 14 April 2026
Orbit: 798 x 812 km, 98.8° (Epoch: 19 May)

Event Time Altitude Azimuth Distance (km) Brightness Sun altitude
Rises 22:55:41 0° 24° (NNE) 3,350 6.9 -21.6°
Reaches altitude 10° 22:58:39 10° 40° (NE) 2,412 5.6 -21.4°
Maximum altitude 23:02:36 21° 88° (E) 1,766 4.2 -21.2°
Drops below altitude 10° 23:06:32 10° 136° (SE) 2,394 4.4 -20.9°
Enters shadow 23:07:00 - 140° (SE) 2,526 4.5 -20.9°
